User: anonymous   Login
Location: Banios
(43.0451°N, 0.2335°E)
Time: 15:12:49
(UTC+00:00)
Language:

Cosmos 1092 Rocket - Orbit

View from above orbital plane
View from above orbital plane
View from above satellite
View from above satellite

Ground track
Ground track

The orbit data is extracted from the following two-line orbital elements,

1 11327U 79030B   21107.89926478 -.00000004  00000-0 -19259-4 0  9993
2 11327  82.9498 335.8660 0026879 216.5752 153.8447 13.76961417111681
Epoch (UTC): 17 April 2021 21:34:56
Eccentricity: 0.0026879
inclination: 82.9498°
perigee height: 955 km
apogee height: 994 km
right ascension of ascending node: 335.8660°
argument of perigee: 216.5752°
revolutions per day: 13.76961417
mean anomaly at epoch: 153.8447°
orbit number at epoch: 11168

The dashed part of the orbit path shows where the satellite is in the earth's shadow,  

DLR